Torna al catalogo

ATLAS 55E DEB

AttivoHEO
NORAD 26921·DEBRIS·🇺🇸 United States

Lanciato Oct 9, 1985 da Vandenberg Space Force Base

Loading…

Prossimi Passaggi (prossime 24 ore)

TLE

In scadenzaSource: Space-Track

Epoca: Sep 4, 2026, 19:12 UTC

1 26921U 85093C   26247.80021170  .00000074  00000-0  52612-4 0  9996
2 26921  62.8797  24.3633 6010852  33.9048 352.9007  3.90305317169576

Traccia ATLAS 55E DEB in tempo reale con AllMySat

Download on the App Store